• In Deutschland
  • Länderverzeichnis
  • Für 7 Tage
  • Wassertemperatur
  • Satellitenkarten
  • Wetterkarte
  • Widgets
  • user-avatar
    Anmelden

    Stündliche Wetter Gronau

    Heute, 15 Dezember, Freitag

    Zeit Temperatur Niederschläge Wind Luftdruck Luftfeuchtigkeit
    00:00 0°C° 0 mm 3 m/S 739 mmHg 94%
    01:00 -1°C° 0 mm 3 m/S 739 mmHg 94%
    02:00 -1°C° 0 mm 3 m/S 739 mmHg 94%
    03:00 -1°C° 0 mm 3 m/S 739 mmHg 95%
    04:00 -1°C° 0 mm 3 m/S 740 mmHg 95%
    05:00 -1°C° 0 mm 3 m/S 740 mmHg 95%
    06:00 -1°C° 0 mm 3 m/S 740 mmHg 94%
    07:00 -1°C° 0 mm 3 m/S 741 mmHg 94%
    08:00 0°C° 0 mm 3 m/S 741 mmHg 93%
    09:00 0°C° 0 mm 3 m/S 741 mmHg 93%
    10:00 +1°C° 0 mm 3 m/S 742 mmHg 91%
    11:00 +3°C° 0 mm 2 m/S 742 mmHg 89%
    12:00 +3°C° 0 mm 2 m/S 742 mmHg 88%
    13:00 +3°C° 0 mm 2 m/S 743 mmHg 89%
    14:00 +3°C° 0 mm 1 m/S 743 mmHg 91%
    15:00 +3°C° 0 mm 1 m/S 744 mmHg 93%
    16:00 +3°C° 0 mm 1 m/S 744 mmHg 93%
    17:00 +2°C° 0 mm 1 m/S 745 mmHg 94%
    18:00 +2°C° 0 mm 1 m/S 745 mmHg 95%
    19:00 +2°C° 0 mm 1 m/S 746 mmHg 95%
    20:00 +2°C° 0 mm 1 m/S 747 mmHg 95%
    21:00 +2°C° 0 mm 1 m/S 747 mmHg 96%
    22:00 +2°C° 0 mm 1 m/S 748 mmHg 96%
    23:00 +1°C° 0 mm 2 m/S 748 mmHg 96%

    Morgen, 16 Dezember, Samstag

    Zeit Temperatur Niederschläge Wind Luftdruck Luftfeuchtigkeit
    00:00 +1°C° 0 mm 2 m/S 749 mmHg 96%
    01:00 +1°C° 0 mm 2 m/S 749 mmHg 95%
    02:00 +1°C° 0 mm 2 m/S 749 mmHg 94%
    03:00 +1°C° 0 mm 2 m/S 750 mmHg 94%
    04:00 +1°C° 0 mm 2 m/S 750 mmHg 93%
    05:00 0°C° 0 mm 3 m/S 750 mmHg 92%
    06:00 0°C° 0 mm 3 m/S 751 mmHg 91%
    07:00 0°C° 0 mm 3 m/S 751 mmHg 89%
    08:00 0°C° 0 mm 3 m/S 752 mmHg 88%
    09:00 +1°C° 0 mm 3 m/S 752 mmHg 87%
    10:00 +2°C° 0,1 mm 3 m/S 753 mmHg 83%
    11:00 +1°C° 0,1 mm 4 m/S 753 mmHg 80%
    12:00 +3°C° 0,1 mm 4 m/S 753 mmHg 77%
    13:00 +3°C° 0,2 mm 4 m/S 754 mmHg 79%
    14:00 +1°C° 0,2 mm 4 m/S 754 mmHg 81%
    15:00 +1°C° 0,2 mm 4 m/S 754 mmHg 83%
    16:00 +1°C° 0,1 mm 3 m/S 755 mmHg 84%
    17:00 +1°C° 0,1 mm 3 m/S 756 mmHg 86%
    18:00 +1°C° 0,1 mm 3 m/S 756 mmHg 87%
    19:00 +1°C° 0 mm 3 m/S 757 mmHg 87%
    20:00 0°C° 0 mm 3 m/S 757 mmHg 88%
    21:00 0°C° 0 mm 3 m/S 758 mmHg 88%
    22:00 0°C° 0 mm 3 m/S 758 mmHg 88%
    23:00 0°C° 0 mm 3 m/S 759 mmHg 88%

    übermorgen, 17 Dezember, Sonntag

    Zeit Temperatur Niederschläge Wind Luftdruck Luftfeuchtigkeit
    00:00 0°C° 0 mm 3 m/S 759 mmHg 88%
    01:00 0°C° 0 mm 3 m/S 760 mmHg 88%
    02:00 0°C° 0 mm 3 m/S 760 mmHg 88%
    03:00 0°C° 0 mm 3 m/S 760 mmHg 88%
    04:00 0°C° 0 mm 3 m/S 761 mmHg 88%
    05:00 -1°C° 0 mm 3 m/S 761 mmHg 89%
    06:00 -1°C° 0 mm 3 m/S 762 mmHg 89%
    07:00 0°C° 0 mm 3 m/S 762 mmHg 88%
    08:00 0°C° 0 mm 3 m/S 763 mmHg 88%
    09:00 0°C° 0 mm 3 m/S 763 mmHg 87%
    10:00 +1°C° 0 mm 3 m/S 764 mmHg 85%
    11:00 +2°C° 0 mm 3 m/S 764 mmHg 83%
    12:00 +3°C° 0 mm 3 m/S 764 mmHg 82%
    13:00 +3°C° 0 mm 3 m/S 764 mmHg 84%
    14:00 +1°C° 0 mm 4 m/S 764 mmHg 86%
    15:00 +1°C° 0 mm 4 m/S 764 mmHg 88%
    16:00 +1°C° 0 mm 4 m/S 764 mmHg 87%
    17:00 0°C° 0 mm 5 m/S 764 mmHg 87%
    18:00 0°C° 0 mm 5 m/S 764 mmHg 86%
    19:00 -1°C° 0 mm 6 m/S 764 mmHg 85%
    20:00 -1°C° 0 mm 6 m/S 763 mmHg 85%
    21:00 -1°C° 0 mm 7 m/S 763 mmHg 85%
    22:00 0°C° 0,6 mm 7 m/S 762 mmHg 87%
    23:00 +1°C° 0,6 mm 8 m/S 761 mmHg 88%

    18 Dezember, Montag

    Zeit Temperatur Niederschläge Wind Luftdruck Luftfeuchtigkeit
    00:00 +2°C° 0,6 mm 9 m/S 760 mmHg 90%
    01:00 +2°C° 0,8 mm 9 m/S 760 mmHg 91%
    02:00 +4°C° 0,8 mm 8 m/S 759 mmHg 91%
    03:00 +5°C° 0,8 mm 8 m/S 759 mmHg 91%
    04:00 +5°C° 0,2 mm 7 m/S 759 mmHg 89%
    05:00 +4°C° 0,2 mm 6 m/S 760 mmHg 87%
    06:00 +4°C° 0,2 mm 6 m/S 760 mmHg 84%
    07:00 +3°C° 0 mm 6 m/S 761 mmHg 82%
    08:00 +3°C° 0 mm 6 m/S 762 mmHg 80%
    09:00 +3°C° 0 mm 6 m/S 763 mmHg 78%
    10:00 +4°C° 0 mm 6 m/S 763 mmHg 76%
    11:00 +4°C° 0 mm 6 m/S 763 mmHg 74%
    12:00 +5°C° 0 mm 6 m/S 764 mmHg 72%
    13:00 +4°C° 0 mm 6 m/S 764 mmHg 74%
    14:00 +5°C° 0 mm 5 m/S 765 mmHg 76%
    15:00 +4°C° 0 mm 4 m/S 765 mmHg 78%
    16:00 +4°C° 0 mm 4 m/S 766 mmHg 81%
    17:00 +3°C° 0 mm 4 m/S 766 mmHg 84%
    18:00 +3°C° 0 mm 3 m/S 767 mmHg 87%
    19:00 +2°C° 0 mm 3 m/S 767 mmHg 89%
    20:00 +2°C° 0 mm 3 m/S 768 mmHg 90%
    21:00 +2°C° 0 mm 3 m/S 768 mmHg 91%
    22:00 +2°C° 0 mm 3 m/S 769 mmHg 92%
    23:00 +2°C° 0 mm 3 m/S 769 mmHg 92%

    19 Dezember, Dienstag

    Zeit Temperatur Niederschläge Wind Luftdruck Luftfeuchtigkeit
    00:00 +2°C° 0 mm 3 m/S 770 mmHg 93%
    01:00 +2°C° 0 mm 3 m/S 770 mmHg 93%
    02:00 +2°C° 0 mm 3 m/S 770 mmHg 94%
    03:00 +1°C° 0 mm 3 m/S 770 mmHg 94%
    04:00 +2°C° 0 mm 2 m/S 771 mmHg 94%
    05:00 +2°C° 0 mm 2 m/S 771 mmHg 94%
    06:00 +2°C° 0 mm 2 m/S 771 mmHg 94%
    07:00 +2°C° 0 mm 2 m/S 772 mmHg 94%
    08:00 +2°C° 0 mm 2 m/S 772 mmHg 93%
    09:00 +3°C° 0 mm 2 m/S 772 mmHg 93%
    10:00 +3°C° 0 mm 2 m/S 772 mmHg 90%
    11:00 +3°C° 0 mm 3 m/S 772 mmHg 87%
    12:00 +4°C° 0 mm 3 m/S 772 mmHg 84%
    13:00 +4°C° 0 mm 3 m/S 772 mmHg 86%
    14:00 +3°C° 0 mm 3 m/S 772 mmHg 87%
    15:00 +3°C° 0 mm 3 m/S 772 mmHg 89%
    16:00 +3°C° 0 mm 3 m/S 772 mmHg 88%
    17:00 +3°C° 0 mm 3 m/S 772 mmHg 87%
    18:00 +3°C° 0 mm 3 m/S 772 mmHg 86%
    19:00 +3°C° 0 mm 3 m/S 772 mmHg 87%
    20:00 +3°C° 0 mm 3 m/S 772 mmHg 89%
    21:00 +4°C° 0 mm 3 m/S 772 mmHg 91%
    22:00 +4°C° 0 mm 3 m/S 772 mmHg 93%
    23:00 +4°C° 0 mm 3 m/S 771 mmHg 95%

    20 Dezember, Mittwoch

    Zeit Temperatur Niederschläge Wind Luftdruck Luftfeuchtigkeit
    00:00 +4°C° 0 mm 3 m/S 771 mmHg 96%
    01:00 +4°C° 0,1 mm 3 m/S 771 mmHg 97%
    02:00 +5°C° 0,1 mm 3 m/S 771 mmHg 97%
    03:00 +6°C° 0,1 mm 2 m/S 771 mmHg 98%
    04:00 +6°C° 0,2 mm 2 m/S 771 mmHg 98%
    05:00 +7°C° 0,2 mm 2 m/S 771 mmHg 98%
    06:00 +7°C° 0,2 mm 2 m/S 771 mmHg 98%
    07:00 +7°C° 0,2 mm 2 m/S 771 mmHg 98%
    08:00 +7°C° 0,2 mm 2 m/S 772 mmHg 98%
    09:00 +8°C° 0,2 mm 2 m/S 772 mmHg 98%
    10:00 +8°C° 0 mm 2 m/S 772 mmHg 97%
    11:00 +8°C° 0 mm 2 m/S 772 mmHg 97%
    12:00 +9°C° 0 mm 3 m/S 772 mmHg 97%
    13:00 +9°C° 0 mm 3 m/S 772 mmHg 97%
    14:00 +9°C° 0 mm 3 m/S 772 mmHg 97%
    15:00 +9°C° 0 mm 3 m/S 772 mmHg 97%
    16:00 +9°C° 0,1 mm 3 m/S 772 mmHg 97%
    17:00 +9°C° 0,1 mm 3 m/S 772 mmHg 97%
    18:00 +9°C° 0,1 mm 3 m/S 773 mmHg 97%
    19:00 +9°C° 0 mm 3 m/S 773 mmHg 97%
    20:00 +9°C° 0 mm 3 m/S 773 mmHg 97%
    21:00 +9°C° 0 mm 3 m/S 773 mmHg 97%
    22:00 +9°C° 0,1 mm 3 m/S 773 mmHg 97%
    23:00 +8°C° 0,1 mm 4 m/S 773 mmHg 97%
    Mehr zeigen